GW7202 Weather Reports


time (UTC)temp
F
wind
direction
speed
knots
gust
knots
rain 1hr
in
rain 24hr
in
rain mn
in
humidity
%
barometer
mb
20260505083024 63 226 2.6 7.0 0.00 0.00 0.00 72 1004.9
20260505081516 63 184 3.5 6.1 0.00 0.00 0.00 71 1004.7
20260505080014 63 162 5.2 8.7 0.00 0.00 0.00 71 1004.9
20260505074511 64 173 4.3 7.0 0.00 0.00 0.00 70 1005.0
20260505073027 64 161 3.5 8.7 0.00 0.00 0.00 70 1005.4
20260505071524 64 203 5.2 7.0 0.00 0.00 0.00 69 1005.8
20260505070023 65 172 4.3 10.4 0.00 0.00 0.00 68 1005.9
20260505064520 65 195 4.3 8.7 0.00 0.00 0.00 68 1006.2
20260505063017 64 184 4.3 6.1 0.00 0.00 0.00 68 1005.8
20260505061545 65 164 4.3 7.0 0.00 0.00 0.00 67 1005.3
20260505060014 65 180 3.5 6.1 0.00 0.00 0.00 66 1005.7
20260505054511 66 152 2.6 6.1 0.00 0.00 0.00 65 1005.6
20260505053038 66 155 2.6 13.9 0.00 0.00 0.00 64 1005.2
20260505051552 66 177 5.2 10.4 0.00 0.00 0.00 64 1005.1
20260505041516 68 155 4.3 10.4 0.00 0.00 0.00 61 1005.9
20260505040017 68 180 5.2 10.4 0.00 0.00 0.00 61 1006.0
20260505034530 68 229 3.5 8.7 0.00 0.00 0.00 60 1006.2
20260505033030 69 204 4.3 8.7 0.00 0.00 0.00 60 1006.2
20260505031524 68 198 3.5 7.0 0.00 0.00 0.00 59 1005.9
20260505030024 69 190 1.7 6.1 0.00 0.00 0.00 59 1005.6
20260505024522 69 146 2.6 5.2 0.00 0.00 0.00 58 1005.4
20260505023023 70 167 2.6 7.0 0.00 0.00 0.00 57 1005.1
20260505021518 70 205 2.6 5.2 0.00 0.00 0.00 57 1004.8
20260505020026 71 219 2.6 4.3 0.00 0.00 0.00 56 1004.7
20260505014528 71 193 3.5 5.2 0.00 0.00 0.00 54 1004.4
20260505013029 72 206 2.6 5.2 0.00 0.00 0.00 54 1004.4
20260505011526 73 138 3.5 7.8 0.00 0.00 0.00 53 1004.4
20260505010024 74 139 4.3 7.0 0.00 0.00 0.00 52 1004.2
20260505004507 74 172 2.6 7.0 0.00 0.00 0.00 51 1004.0
20260505003018 75 155 3.5 8.7 0.00 0.00 0.00 49 1003.9
20260505001509 76 181 3.5 8.7 0.00 0.00 0.00 47 1003.8
20260505000009 77 203 2.6 8.7 0.00 0.00 0.00 44 1003.8
20260504234511 78 158 4.3 13.0 0.00 0.00 0.00 42 1003.7
20260504233010 79 214 7.0 17.4 0.00 0.00 0.00 40 1003.9
20260504231507 81 162 7.8 13.9 0.00 0.00 0.00 39 1003.9
20260504230008 81 208 3.5 15.6 0.00 0.00 0.00 41 1004.0
20260504224508 81 183 7.0 14.8 0.00 0.00 0.00 39 1003.9
20260504223013 81 181 5.2 13.0 0.00 0.00 0.00 39 1003.8
20260504221512 81 208 4.3 13.0 0.00 0.00 0.00 41 1003.7
20260504220009 80 174 7.0 15.6 0.00 0.00 0.00 41 1003.8
20260504214514 81 204 9.6 16.5 0.00 0.00 0.00 40 1004.0
20260504213017 81 190 5.2 15.6 0.00 0.00 0.00 41 1004.0
20260504211506 81 131 3.5 16.5 0.00 0.00 0.00 42 1003.9
20260504210014 80 181 6.1 18.2 0.00 0.00 0.00 45 1003.9
20260504204511 80 192 8.7 13.9 0.00 0.00 0.00 43 1004.2
20260504203021 80 204 7.8 18.2 0.00 0.00 0.00 43 1004.4
20260504201515 80 206 5.2 15.6 0.00 0.00 0.00 43 1004.2
20260504200015 79 199 10.4 13.9 0.00 0.00 0.00 43 1004.5
20260504194516 78 137 9.6 13.9 0.00 0.00 0.00 43 1005.1
20260504193017 79 180 4.3 11.3 0.00 0.00 0.00 46 1005.5
20260504191520 78 214 4.3 10.4 0.00 0.00 0.00 46 1005.7
20260504190018 76 196 3.5 13.9 0.00 0.00 0.00 46 1005.9
20260504184518 77 182 7.0 14.8 0.00 0.00 0.00 45 1006.1
20260504183017 78 200 6.1 16.5 0.00 0.00 0.00 43 1005.9
20260504181517 79 188 4.3 12.2 0.00 0.00 0.00 43 1005.9
20260504180016 78 190 6.1 13.9 0.00 0.00 0.00 43 1005.9
20260504174516 78 174 7.0 13.9 0.00 0.00 0.00 45 1006.0
20260504173010 78 153 6.1 18.2 0.00 0.00 0.00 45 1006.0
20260504171520 78 217 6.1 13.0 0.00 0.00 0.00 43 1006.1